Orbital Elements at Epoch 2459000.5 (2020-May-31.0) TDB
Reference: JPL 16 (heliocentric ecliptic J2000)
Element | Value | Uncertainty (1-sigma) | Units |
e | .1819919310167579 | 1.0881e-07 | |
a | 2.320857849782454 | 2.7286e-08 | au |
q | 1.898480448085145 | 2.5857e-07 | au |
i | 7.941939995661568 | 1.0949e-05 | deg |
node | 177.7926785122244 | 3.9633e-05 | deg |
peri | 205.888787007502 | 4.7062e-05 | deg |
M | 192.9766289795874 | 3.2325e-05 | deg |
tp | 2459599.664374123776 (2022-Jan-20.16437412) | 0.00012349 | TDB |
period | 1291.431093545572 3.54 | 2.2775e-05 6.235e-08 | d yr |
n | .2787605175368935 | 4.916e-09 | deg/d |
Q | 2.743235251479764 | 3.2252e-08 | au |
|
| | Orbit Determination Parameters
Additional Information
|